Monroe, NC

8:32 AM EDT on March 25, 2017 (GMT -0400)
Monroe

Weather History for KEQY - December, 2013

Change the Weather History Date:

Sunday, December 8, 2013

  Actual Average (KCLT) Record (KCLT)
Temperature  
Mean Temperature 40 °F -  
Max Temperature 46 °F 54 °F 76 °F (1998)
Min Temperature 35 °F 35 °F 10 °F (1882)
Degree Days  
Heating Degree Days 24    
Moisture  
Dew Point 35 °F    
Average Humidity 89    
Maximum Humidity 100    
Minimum Humidity 60    
Precipitation  
Precipitation 0.00 in - - ()
Sea Level Pressure  
Sea Level Pressure 30.38 in    
Wind  
Wind Speed 8 mph (NE)    
Max Wind Speed 14 mph    
Max Gust Speed 21 mph    
Visibility 5 miles    
Events Rain , Snow    
Averages and records for this station are not official NWS values.
T = Trace of Precipitation, MM = Missing Value Source: NWS Daily Summary

Daily Weather History Graph

Daily Weather History Graph

Search for Another Location

Airport or City:

Trip Planner

Search our weather history database for the weather conditions in past years. The results will help you decide how hot, cold, wet, or windy it might be!

Date:

Astronomy

Dec. 08, 2013 Rise Set
Actual Time 7:18 AM EST 5:10 PM EST
Civil Twilight 6:50 AM EST 5:38 PM EST
Nautical Twilight 6:18 AM EST 6:10 PM EST
Astronomical Twilight 5:47 AM EST 6:41 PM EST
Moon 11:48 AM EST (12/8) 11:46 PM EST (12/8)
Length of Visible Light 10h 48m
Length of Day
9h 52m
Waxing Crescent, 40% of the Moon is Illuminated
Dec 8
Waxing Crescent
Dec 9
First Quarter
Dec 17
Full
Dec 25
Last Quarter
Jan 1
New

Hourly Weather History & Observations

Time (EST) Temp. Windchill Dew Point Humidity Pressure Visibility Wind Dir Wind Speed Gust Speed Precip Events Conditions
12:53 AM 46.0 °F 43.1 °F 37.0 °F 71% 30.42 in 10.0 mi Variable 5.8 mph - N/A   Overcast
1:53 AM 45.0 °F 39.7 °F 32.0 °F 60% 30.41 in 10.0 mi ENE 10.4 mph 20.7 mph N/A   Overcast
2:06 AM 44.6 °F 39.7 °F 33.8 °F 66% 30.37 in 10.0 mi ENE 9.2 mph 19.6 mph N/A   Overcast
2:53 AM 44.1 °F 39.5 °F 34.0 °F 68% 30.40 in 10.0 mi East 8.1 mph - N/A   Overcast
3:53 AM 44.1 °F 40.8 °F 33.1 °F 65% 30.40 in 10.0 mi NE 5.8 mph - N/A   Overcast
4:53 AM 43.0 °F 36.0 °F 33.1 °F 68% 30.39 in 10.0 mi NE 13.8 mph 19.6 mph N/A   Overcast
5:53 AM 42.1 °F 37.1 °F 33.1 °F 70% 30.41 in 10.0 mi ENE 8.1 mph - N/A   Overcast
6:53 AM 39.9 °F 33.4 °F 34.0 °F 79% 30.43 in 10.0 mi NE 10.4 mph - 0.00 in   Overcast
7:53 AM 37.9 °F 32.7 °F 36.0 °F 93% 30.44 in 3.0 mi NE 6.9 mph - 0.00 in Snow Light Snow
8:11 AM 37.4 °F 30.8 °F 35.6 °F 93% 30.39 in 4.0 mi ENE 9.2 mph - 0.00 in Rain Light Rain
8:53 AM 37.9 °F 32.1 °F 36.0 °F 93% 30.45 in 3.0 mi NE 8.1 mph - 0.00 in Snow Light Snow
9:41 AM 37.4 °F 30.8 °F 35.6 °F 93% 30.39 in 2.0 mi ENE 9.2 mph - 0.00 in Snow Light Snow
9:53 AM 37.9 °F 32.1 °F 36.0 °F 93% 30.45 in 2.5 mi NE 8.1 mph - 0.00 in Rain Light Rain
10:05 AM 37.4 °F 31.4 °F 35.6 °F 93% 30.39 in 3.0 mi ENE 8.1 mph - 0.00 in Snow Light Snow
10:48 AM 37.4 °F 32.1 °F 35.6 °F 93% 30.37 in 8.0 mi ENE 6.9 mph - 0.00 in Snow Light Snow
10:53 AM 37.0 °F 31.0 °F 35.1 °F 93% 30.43 in 8.0 mi NE 8.1 mph 16.1 mph 0.00 in   Overcast
11:07 AM 37.4 °F 31.4 °F 35.6 °F 93% 30.39 in 6.0 mi NE 8.1 mph - 0.00 in Snow Light Snow
11:39 AM 37.4 °F 28.9 °F 35.6 °F 93% 30.38 in 2.0 mi NNE 13.8 mph - 0.00 in Snow Light Snow
11:48 AM 37.4 °F 29.3 °F 35.6 °F 93% 30.37 in 1.5 mi NNE 12.7 mph - 0.00 in Snow Light Snow
11:53 AM 37.0 °F 29.8 °F 35.1 °F 93% 30.43 in 1.5 mi NNE 10.4 mph - 0.00 in Snow Light Snow
12:48 PM 37.4 °F 30.8 °F 35.6 °F 93% 30.37 in 2.0 mi NNE 9.2 mph - 0.00 in Snow Light Snow
12:53 PM 37.0 °F 31.0 °F 35.1 °F 93% 30.42 in 2.0 mi NNE 8.1 mph - 0.00 in Snow Light Snow
1:33 PM 37.4 °F 30.8 °F 35.6 °F 93% 30.33 in 3.0 mi NE 9.2 mph - 0.00 in Snow Light Snow
1:53 PM 37.0 °F 28.9 °F 35.1 °F 93% 30.39 in 6.0 mi NNE 12.7 mph - 0.00 in Snow Light Snow
2:53 PM 37.0 °F 29.8 °F 34.0 °F 89% 30.37 in 9.0 mi NE 10.4 mph - 0.00 in Snow Light Snow
3:53 PM 37.0 °F 28.9 °F 34.0 °F 89% 30.36 in 9.0 mi NE 12.7 mph - 0.00 in Snow Light Snow
4:53 PM 36.0 °F 28.5 °F 35.1 °F 97% 30.38 in 3.0 mi NE 10.4 mph - 0.00 in Snow Light Snow
5:31 PM 35.6 °F 29.2 °F 35.6 °F 100% 30.32 in 2.0 mi NE 8.1 mph - 0.00 in Snow Light Snow
5:40 PM 35.6 °F 28.6 °F 33.8 °F 93% 30.32 in 2.5 mi NE 9.2 mph - 0.00 in Snow Light Snow
5:48 PM 35.6 °F 28.6 °F 33.8 °F 93% 30.31 in 4.0 mi ENE 9.2 mph - 0.00 in Snow Light Snow
5:53 PM 35.1 °F 29.3 °F 34.0 °F 96% 30.36 in 5.0 mi ENE 6.9 mph - 0.00 in Snow Light Snow
6:53 PM 35.1 °F 27.9 °F 34.0 °F 96% 30.37 in 5.0 mi NE 9.2 mph - 0.00 in Snow Light Snow
7:53 PM 35.1 °F 27.9 °F 34.0 °F 96% 30.38 in 4.0 mi NNE 9.2 mph - 0.00 in Snow Light Snow
8:53 PM 35.1 °F 31.0 °F 34.0 °F 96% 30.38 in 3.0 mi NE 4.6 mph - 0.00 in   Overcast
9:07 PM 35.6 °F 29.9 °F 33.8 °F 93% 30.31 in 3.0 mi NE 6.9 mph - N/A   Overcast
9:53 PM 35.1 °F 30.1 °F 35.1 °F 100% 30.38 in 4.0 mi NE 5.8 mph - 0.00 in   Overcast
10:14 PM 35.6 °F 32.8 °F 33.8 °F 93% 30.31 in 3.0 mi NE 3.5 mph - N/A   Overcast
10:32 PM 35.6 °F 31.7 °F 33.8 °F 93% 30.30 in 2.5 mi NE 4.6 mph - N/A   Overcast
10:43 PM 35.6 °F 29.9 °F 33.8 °F 93% 30.29 in 4.0 mi NE 6.9 mph - N/A   Overcast
10:53 PM 35.1 °F 30.1 °F 34.0 °F 96% 30.35 in 4.0 mi ENE 5.8 mph - 0.00 in Snow Light Snow
11:53 PM 35.1 °F 30.1 °F 34.0 °F 96% 30.33 in 3.0 mi NE 5.8 mph - 0.00 in   Overcast